OPS 4682 DEB, 38425

Orbit data source: Space-Track

OPS 4682 DEB, 38425 is space debris in LEO originally from a launch on Sat, 03 Apr 1965 UTC launched from the Air Force Western Test Range (AFWTR). Debris objects in space refer to the collection of defunct objects orbiting the Earth. Examples of debris include non-operational satellites, rocket bodies, and fragments generated from explosions, collisions, or faulty payload assembly.

Loading next visibility...
Identifier
38425, 1965-027EE
Orbit
LEO
Country
Flag of USUS
Related business
Manufacturer
Unknown
Mission
Spacecraft
Bus & Motor
Unknown
Mass
Unknown
Launch date (UTC)
1965-04-03 (61 years ago)
Launch vehicle
Unknown
Launch site
Air Force Western Test Range (AFWTR)
Object type
Payload
Rocket body
Debris
Shape & HBR
Unknown shape, 0.1 m
Radar Cross Section
Medium (>0.1 m² and <1 m²)

Expand to show TLE details & history
Last TLE update: 5 days ago

TLE from 5 days ago
0 OPS 4682 DEB
1 38425U 65027EE  26146.36338755  .00000459  00000-0  16052-2 0  9995
2 38425  90.2453   7.2289 0035236 288.9125  70.8175 12.95183039659738
Epoch: 2026-05-26T08:43Z
TLE epoch observation values (Epoch: 2026-05-26T08:43:16.684Z)
Latitude
-0.00011°
Longitude
-7.52852°
Altitude
1,275.111 km
Speed
7.222 km/s
True Right ascension
00h 28m 54s
True Declination
0° 00' 00"
Sunlit
Object was in daylight at epoch
Visualization orbit readout
Latitude
Unknown
Longitude
Unknown
Altitude
Unknown
Speed
Unknown
Apparent Right ascension
Unknown
Apparent Declination
Unknown
Sunlit
N/A
Visualization observer readout
Local Sidereal Time
13:40:18
Azimuth
Unknown
Elevation
Unknown
Doppler factor
Unknown
Orbital elements
Apogee altitude
1,305.13 km
Perigee altitude
1,251.175 km
Semi-major axis
7,656.289 km
Eccentricity
0.00352
Inclination
90.2453°
RAAN
7.2289°
Arg. of periapsis
288.9125°
True anomaly
71.19941°
Mean anomaly
70.8175°
Eccentric anomaly
71.0084°
Mean motion
3.23978 °/min
Orbital period
111.12 mins
BSTAR
0.0016052
Loading maneuver chart data...
Computing Atmospheric mass density...
Loading historical data...
Loading historical data...
Loading historical data...
Loading historical data...
Loading historical data...
Loading historical data...
Loading historical data...

Documentation

Showing up to 5 results
|